Change the Weather History Date:

Sunday, August 10, 2014

  Actual Average (KGHW) Record (KGHW)
Temperature  
Mean Temperature 68 °F -  
Max Temperature 73 °F 79 °F 96 °F (2007)
Min Temperature 64 °F 54 °F 43 °F (1982)
Cooling Degree Days 4    
Growing Degree Days 18 (Base 50)    
Moisture  
Dew Point 65 °F    
Average Humidity 88    
Maximum Humidity 98    
Minimum Humidity 77    
Precipitation  
Precipitation 0.50 in - - ()
Sea Level Pressure  
Sea Level Pressure 30.03 in    
Wind  
Wind Speed 6 mph (ENE)    
Max Wind Speed 16 mph    
Max Gust Speed 21 mph    
Visibility 8 miles    
Events Rain    
Averages and records for this station are not official NWS values.
T = Trace of Precipitation, MM = Missing Value Source: NWS Daily Summary

Daily Weather History Graph

Daily Weather History Graph

Search for Another Location

Airport or City:

Trip Planner

Search our weather history database for the weather conditions in past years. The results will help you decide how hot, cold, wet, or windy it might be!

Date:

Astronomy

Aug. 10, 2014 Rise Set
Actual Time 6:13 AM CDT 8:35 PM CDT
Civil Twilight 5:40 AM CDT 9:08 PM CDT
Nautical Twilight 4:59 AM CDT 9:49 PM CDT
Astronomical Twilight 4:12 AM CDT 10:35 PM CDT
Moon 8:18 PM CDT (8/10) 6:09 AM CDT (8/10)
Length of Visible Light 15h 27m
Length of Day
14h 21m
Full, 100% of the Moon is Illuminated
Aug 10
Full
Aug 10
Full
Aug 17
Last Quarter
Aug 25
New
Sep 2
First Quarter

Hourly Weather History & Observations

Time (CDT) Temp. Dew Point Humidity Pressure Visibility Wind Dir Wind Speed Gust Speed Precip Events Conditions
12:12 AM 65.3 °F 60.3 °F 84% 30.06 in 10.0 mi Calm Calm - N/A Rain Light Rain
12:32 AM 65.1 °F 61.0 °F 86% 30.06 in 10.0 mi East 3.5 mph - 0.01 in Rain Light Rain
12:53 AM 65.7 °F 60.6 °F 84% 30.06 in 10.0 mi East 5.8 mph - 0.01 in Rain Light Rain
1:12 AM 65.8 °F 60.8 °F 84% 30.05 in 10.0 mi East 5.8 mph - N/A   Light Drizzle
1:32 AM 64.6 °F 61.7 °F 90% 30.06 in 7.0 mi SE 4.6 mph - 0.01 in Rain Light Rain
1:53 AM 64.8 °F 61.7 °F 90% 30.05 in 7.0 mi East 5.8 mph - 0.02 in Rain Light Rain
2:12 AM 65.1 °F 61.9 °F 89% 30.05 in 10.0 mi East 5.8 mph - N/A   Overcast
2:32 AM 65.3 °F 62.1 °F 89% 30.05 in 10.0 mi East 6.9 mph - N/A   Overcast
2:53 AM 65.7 °F 62.4 °F 89% 30.05 in 10.0 mi ESE 6.9 mph - N/A   Overcast
3:12 AM 65.5 °F 62.8 °F 91% 30.05 in 7.0 mi ESE 5.8 mph - N/A   Drizzle
3:32 AM 65.3 °F 62.8 °F 92% 30.05 in 5.0 mi ESE 8.1 mph - 0.03 in Rain Rain
4:12 AM 65.3 °F 63.5 °F 94% 30.06 in 7.0 mi SE 5.8 mph - N/A   Overcast
4:32 AM 65.5 °F 63.5 °F 93% 30.05 in 7.0 mi SE 8.1 mph - N/A   Overcast
4:53 AM 65.3 °F 63.7 °F 94% 30.06 in 7.0 mi SSE 5.8 mph - 0.01 in Rain Light Rain
5:12 AM 64.9 °F 63.9 °F 96% 30.06 in 3.0 mi South 4.6 mph - 0.07 in Rain Heavy Rain
5:32 AM 64.6 °F 63.9 °F 98% 30.05 in 2.5 mi SE 8.1 mph - 0.19 in Rain Heavy Rain
5:53 AM 64.6 °F 63.9 °F 98% 30.05 in 2.5 mi ESE 6.9 mph - 0.31 in Rain Heavy Rain
6:12 AM 64.6 °F 63.9 °F 98% 30.04 in 3.0 mi ESE 6.9 mph - 0.04 in Rain Rain
6:32 AM 64.6 °F 63.9 °F 98% 30.05 in 4.0 mi East 6.9 mph - 0.06 in Rain Light Rain
7:12 AM 64.9 °F 64.0 °F 97% 30.05 in 3.0 mi ESE 6.9 mph - N/A   Light Drizzle
7:33 AM 65.3 °F 64.0 °F 96% 30.05 in 4.0 mi ESE 5.8 mph - N/A Rain Light Rain
7:53 AM 65.3 °F 64.0 °F 96% 30.05 in 4.0 mi East 5.8 mph - 0.02 in Rain Light Rain
8:12 AM 65.3 °F 64.4 °F 97% 30.05 in 3.0 mi ESE 6.9 mph - 0.02 in Rain Rain
8:33 AM 65.5 °F 64.6 °F 97% 30.04 in 4.0 mi ESE 6.9 mph - 0.03 in   Overcast
8:52 AM 66.2 °F 65.1 °F 96% 30.04 in 4.0 mi ESE 8.1 mph - 0.03 in   Overcast
9:12 AM 66.2 °F 64.8 °F 95% 30.04 in 5.0 mi SE 5.8 mph - N/A   Overcast
9:33 AM 66.4 °F 64.9 °F 95% 30.04 in 5.0 mi SE 8.1 mph - N/A   Overcast
9:52 AM 66.7 °F 65.3 °F 95% 30.04 in 5.0 mi SE 6.9 mph - N/A   Overcast
10:12 AM 67.3 °F 65.7 °F 95% 30.04 in 5.0 mi SE 5.8 mph - N/A   Overcast
10:33 AM 67.6 °F 65.8 °F 94% 30.05 in 5.0 mi SE 6.9 mph - N/A   Overcast
10:52 AM 68.4 °F 66.0 °F 92% 30.04 in 7.0 mi SSE 6.9 mph - N/A   Overcast
11:12 AM 68.4 °F 65.8 °F 92% 30.05 in 7.0 mi South 8.1 mph - N/A   Overcast
11:33 AM 69.3 °F 66.2 °F 90% 30.04 in 7.0 mi South 4.6 mph - N/A   Overcast
11:52 AM 68.9 °F 66.2 °F 91% 30.05 in 7.0 mi South 6.9 mph - N/A   Overcast
12:12 PM 68.5 °F 66.0 °F 92% 30.05 in 7.0 mi SW 3.5 mph - N/A Rain Light Rain
12:33 PM 68.2 °F 66.7 °F 95% 30.04 in 3.0 mi Calm Calm - 0.01 in   Light Drizzle
12:52 PM 69.1 °F 66.6 °F 92% 30.04 in 5.0 mi Calm Calm - 0.01 in Rain Rain
1:12 PM 70.3 °F 66.7 °F 88% 30.04 in 10.0 mi Calm Calm - N/A   Overcast
1:33 PM 71.2 °F 66.7 °F 86% 30.03 in 10.0 mi Calm Calm - N/A   Overcast
1:52 PM 72.7 °F 66.7 °F 82% 30.03 in 10.0 mi Calm Calm - N/A   Overcast
2:12 PM 73.2 °F 65.7 °F 77% 30.03 in 10.0 mi SW 3.5 mph - N/A   Overcast
2:33 PM 72.7 °F 66.6 °F 81% 30.02 in 10.0 mi West 9.2 mph - N/A   Overcast
2:52 PM 72.1 °F 66.2 °F 82% 30.02 in 10.0 mi West 8.1 mph - N/A   Overcast
3:12 PM 71.6 °F 66.7 °F 85% 30.01 in 7.0 mi WSW 6.9 mph - N/A   Light Drizzle
3:32 PM 72.7 °F 66.6 °F 81% 30.00 in 10.0 mi NW 10.4 mph - N/A   Overcast
3:52 PM 72.5 °F 66.2 °F 81% 30.00 in 10.0 mi North 8.1 mph - N/A   Overcast
4:12 PM 71.2 °F 66.9 °F 86% 30.01 in 10.0 mi NNE 6.9 mph - N/A   Overcast
4:32 PM 72.0 °F 66.4 °F 83% 30.01 in 10.0 mi North 5.8 mph - N/A   Overcast
4:52 PM 73.4 °F 66.7 °F 80% 30.00 in 10.0 mi NNE 5.8 mph - N/A   Overcast
5:32 PM 73.4 °F 67.1 °F 81% 29.99 in 10.0 mi North 3.5 mph - N/A   Mostly Cloudy
5:52 PM 73.0 °F 67.1 °F 82% 30.00 in 10.0 mi North 5.8 mph - N/A   Overcast
6:13 PM 72.7 °F 66.7 °F 82% 30.00 in 10.0 mi North 6.9 mph - N/A   Overcast
6:32 PM 72.5 °F 65.8 °F 80% 30.00 in 10.0 mi North 6.9 mph - N/A   Mostly Cloudy
6:52 PM 72.1 °F 64.9 °F 78% 30.00 in 10.0 mi NNW 9.2 mph - N/A   Overcast
7:13 PM 71.1 °F 64.6 °F 80% 30.00 in 10.0 mi NNW 10.4 mph - N/A   Mostly Cloudy
7:32 PM 71.8 °F 65.1 °F 79% 30.01 in 10.0 mi NNW 10.4 mph 17.3 mph N/A   Scattered Clouds
7:52 PM 71.8 °F 64.9 °F 79% 30.01 in 10.0 mi NNW 11.5 mph 20.7 mph N/A   Scattered Clouds
8:13 PM 70.7 °F 64.8 °F 81% 30.01 in 10.0 mi NNW 12.7 mph 17.3 mph N/A   Mostly Cloudy
8:32 PM 69.8 °F 64.8 °F 84% 30.02 in 10.0 mi NNW 11.5 mph - N/A   Mostly Cloudy
8:53 PM 69.1 °F 64.9 °F 87% 30.02 in 10.0 mi NNW 11.5 mph 16.1 mph N/A   Mostly Cloudy
9:12 PM 68.2 °F 64.6 °F 88% 30.02 in 10.0 mi NNW 10.4 mph - N/A   Mostly Cloudy
9:32 PM 68.0 °F 64.4 °F 88% 30.02 in 10.0 mi NNW 12.7 mph 18.4 mph N/A   Overcast
9:53 PM 68.0 °F 64.4 °F 88% 30.03 in 10.0 mi NNW 15.0 mph 18.4 mph N/A   Overcast
10:12 PM 68.0 °F 64.6 °F 89% 30.03 in 10.0 mi NNW 12.7 mph 16.1 mph N/A   Overcast
10:32 PM 67.6 °F 64.6 °F 90% 30.03 in 10.0 mi North 13.8 mph 17.3 mph N/A   Overcast
10:53 PM 67.3 °F 63.7 °F 88% 30.04 in 10.0 mi NNW 16.1 mph 19.6 mph N/A   Overcast
11:12 PM 67.3 °F 61.9 °F 83% 30.04 in 10.0 mi NNW 13.8 mph 19.6 mph N/A   Overcast
11:32 PM 67.1 °F 61.2 °F 81% 30.05 in 10.0 mi North 10.4 mph 20.7 mph N/A   Overcast
11:53 PM 66.9 °F 60.4 °F 80% 30.04 in 10.0 mi North 12.7 mph 19.6 mph N/A   Overcast